�������l�o���
Date,Time,MP-1(��Sv/h),MP-2(��Sv/h),MP-3(��Sv/h),MP-4(��Sv/h),MP-5(��Sv/h),MP-6(��Sv/h),MP-7(��Sv/h),MP-8(��Sv/h),����,����(m/s),���J
2017/08/30,00:00,0.967,1.527,0.991,1.814,1.261,0.525,0.957,0.880,�k,2.3,��
2017/08/30,00:10,0.968,1.527,0.993,1.813,1.261,0.526,0.956,0.881,�k,3.1,��
2017/08/30,00:20,0.967,1.527,0.995,1.814,1.260,0.524,0.955,0.879,�k,4.0,��
2017/08/30,00:30,0.967,1.522,0.996,1.813,1.259,0.525,0.955,0.878,�k,4.3,��
2017/08/30,00:40,0.964,1.528,0.995,1.815,1.260,0.523,0.954,0.881,�k,4.4,��
2017/08/30,00:50,0.966,1.526,0.995,1.815,1.258,0.524,0.956,0.880,�k,4.5,��
2017/08/30,01:00,0.967,1.526,0.996,1.815,1.258,0.522,0.957,0.879,�k,4.3,��
2017/08/30,01:10,0.967,1.526,0.993,1.814,1.258,0.523,0.954,0.879,�k�k��,5.5,��
2017/08/30,01:20,0.964,1.525,0.995,1.814,1.259,0.523,0.955,0.879,�k,4.6,��
2017/08/30,01:30,0.965,1.526,0.995,1.813,1.258,0.523,0.955,0.880,�k,4.5,��
2017/08/30,01:40,0.966,1.526,0.995,1.812,1.257,0.524,0.954,0.878,�k,4.5,��
2017/08/30,01:50,0.966,1.526,0.994,1.814,1.259,0.523,0.955,0.879,�k,4.8,��
2017/08/30,02:00,0.964,1.525,0.993,1.813,1.257,0.522,0.956,0.881,�k,4.4,��
2017/08/30,02:10,0.964,1.524,0.992,1.811,1.259,0.523,0.954,0.878,�k,6.7,��
2017/08/30,02:20,0.962,1.521,0.992,1.814,1.259,0.521,0.953,0.879,�k,6.7,��
2017/08/30,02:30,0.962,1.525,0.994,1.814,1.260,0.523,0.954,0.878,�k,6.9,��
2017/08/30,02:40,0.962,1.523,0.991,1.812,1.259,0.520,0.953,0.879,�k,8.7,��
2017/08/30,02:50,0.963,1.527,0.990,1.810,1.260,0.519,0.954,0.879,�k,7.4,��
2017/08/30,03:00,0.963,1.522,0.991,1.813,1.259,0.519,0.951,0.878,�k,7.8,��
2017/08/30,03:10,0.961,1.525,0.992,1.809,1.259,0.519,0.950,0.878,�k,7.4,�L
2017/08/30,03:20,0.962,1.521,0.991,1.811,1.258,0.518,0.953,0.878,�k,5.6,��
2017/08/30,03:30,0.960,1.523,0.991,1.813,1.257,0.520,0.954,0.880,�k,5.4,�L
2017/08/30,03:40,0.962,1.523,0.989,1.814,1.258,0.521,0.953,0.878,�k,5.3,�L
2017/08/30,03:50,0.961,1.524,0.991,1.812,1.258,0.520,0.952,0.879,�k,4.3,��
2017/08/30,04:00,0.960,1.523,0.990,1.813,1.256,0.519,0.954,0.880,�k,3.1,��
2017/08/30,04:10,0.959,1.521,0.991,1.812,1.257,0.518,0.954,0.878,�k,4.6,��
2017/08/30,04:20,0.962,1.525,0.990,1.813,1.259,0.519,0.955,0.878,�k,4.1,��
2017/08/30,04:30,0.962,1.526,0.990,1.813,1.257,0.520,0.952,0.879,�k�k��,4.8,��
2017/08/30,04:40,0.961,1.524,0.991,1.813,1.259,0.518,0.953,0.880,�k�k��,3.6,��
2017/08/30,04:50,0.962,1.524,0.994,1.814,1.256,0.520,0.954,0.879,�k�k��,3.1,��
2017/08/30,05:00,0.962,1.524,0.992,1.814,1.256,0.519,0.953,0.879,�k,2.6,��
2017/08/30,05:10,0.959,1.522,0.991,1.813,1.256,0.518,0.954,0.880,�k�k��,3.1,��
2017/08/30,05:20,0.960,1.525,0.990,1.809,1.259,0.517,0.953,0.881,�k,4.5,��
2017/08/30,05:30,0.961,1.524,0.992,1.813,1.257,0.519,0.953,0.879,�k,4.7,��
2017/08/30,05:40,0.961,1.522,0.991,1.811,1.254,0.517,0.954,0.880,�k,4.5,��
2017/08/30,05:50,0.961,1.522,0.994,1.810,1.258,0.518,0.953,0.877,�k,4.7,��
2017/08/30,06:00,0.961,1.524,0.991,1.813,1.257,0.520,0.953,0.878,�k,4.8,��
2017/08/30,06:10,0.961,1.524,0.991,1.812,1.258,0.518,0.953,0.878,�k,4.9,��
2017/08/30,06:20,0.959,1.523,0.989,1.814,1.255,0.520,0.951,0.878,�k,5.3,��
2017/08/30,06:30,0.960,1.523,0.989,1.812,1.256,0.518,0.950,0.880,�k�k��,5.3,��
2017/08/30,06:40,0.959,1.523,0.989,1.814,1.255,0.517,0.952,0.877,�k,6.6,��
2017/08/30,06:50,0.958,1.524,0.991,1.815,1.258,0.518,0.952,0.880,�k,5.7,��
2017/08/30,07:00,0.959,1.529,0.988,1.811,1.259,0.519,0.952,0.879,�k,5.2,��
2017/08/30,07:10,0.962,1.525,0.990,1.812,1.258,0.516,0.949,0.879,�k,5.4,��
2017/08/30,07:20,0.958,1.525,0.990,1.814,1.257,0.517,0.949,0.879,�k,4.2,��
2017/08/30,07:30,0.960,1.524,0.990,1.812,1.256,0.519,0.951,0.881,�k,5.2,�L
2017/08/30,07:40,0.959,1.523,0.989,1.812,1.256,0.517,0.950,0.879,�k,4.3,�L
2017/08/30,07:50,0.959,1.522,0.992,1.814,1.257,0.518,0.950,0.879,�k,5.2,�L
2017/08/30,08:00,0.960,1.522,0.989,1.813,1.258,0.519,0.951,0.878,�k�k��,5.6,�L
2017/08/30,08:10,0.959,1.519,0.988,1.812,1.257,0.517,0.949,0.878,�k�k��,5.0,�L
2017/08/30,08:20,0.959,1.522,0.989,1.813,1.258,0.518,0.949,0.878,�k�k��,5.8,�L
2017/08/30,08:30,0.961,1.523,0.991,1.811,1.256,0.518,0.949,0.877,�k�k��,5.6,�L
2017/08/30,08:40,0.960,1.522,0.990,1.813,1.258,0.519,0.948,0.877,�k�k��,5.1,�L
2017/08/30,08:50,0.957,1.520,0.991,1.810,1.254,0.520,0.948,0.878,�k�k��,4.6,�L
2017/08/30,09:00,0.959,1.517,0.990,1.811,1.251,0.521,0.949,0.876,�k�k��,6.3,�L
2017/08/30,09:10,0.959,1.515,0.988,1.811,1.250,0.520,0.948,0.878,�k��,6.2,�L
2017/08/30,09:20,0.959,1.517,0.986,1.810,1.246,0.521,0.948,0.879,�k�k��,5.3,�L
2017/08/30,09:30,0.961,1.515,0.986,1.808,1.247,0.520,0.951,0.880,�k�k��,5.7,�L
2017/08/30,09:40,0.960,1.514,0.986,1.808,1.246,0.519,0.948,0.877,�k�k��,5.7,�L
2017/08/30,09:50,0.960,1.514,0.987,1.811,1.246,0.521,0.949,0.877,�k�k��,6.2,�L
2017/08/30,10:00,0.958,1.509,0.986,1.806,1.242,0.521,0.950,0.878,�k�k��,6.1,�L
2017/08/30,10:10,0.957,1.511,0.985,1.806,1.243,0.519,0.950,0.878,�k�k��,5.7,�L
2017/08/30,10:20,0.956,1.511,0.985,1.804,1.241,0.518,0.950,0.878,�k�k��,5.6,�L
2017/08/30,10:30,0.957,1.505,0.984,1.801,1.237,0.520,0.949,0.877,�k�k��,6.0,�L
2017/08/30,10:40,0.956,1.506,0.982,1.802,1.239,0.520,0.949,0.878,�k��,6.1,�L
2017/08/30,10:50,0.954,1.505,0.983,1.802,1.239,0.516,0.948,0.876,�k�k��,5.8,�L
2017/08/30,11:00,0.956,1.506,0.982,1.797,1.237,0.517,0.949,0.876,�k��,5.9,�L
2017/08/30,11:10,0.958,1.502,0.982,1.800,1.234,0.516,0.948,0.875,�k��,4.9,�L
2017/08/30,11:20,0.955,1.501,0.981,1.797,1.235,0.516,0.946,0.876,�k��,4.4,�L
2017/08/30,11:30,0.956,1.502,0.981,1.799,1.233,0.517,0.948,0.877,�k�k��,4.4,��
2017/08/30,11:40,0.954,1.504,0.979,1.796,1.232,0.516,0.948,0.878,�k�k��,4.5,�L
2017/08/30,11:50,0.952,1.504,0.982,1.798,1.231,0.515,0.947,0.878,�k,3.7,��
2017/08/30,12:00,0.954,1.506,0.981,1.798,1.235,0.516,0.948,0.875,�k,3.2,�L
2017/08/30,12:10,0.953,1.504,0.981,1.799,1.235,0.515,0.947,0.876,�k,4.7,�L
2017/08/30,12:20,0.952,1.504,0.981,1.795,1.229,0.518,0.946,0.876,�k,3.9,�L
2017/08/30,12:30,0.950,1.485,0.972,1.778,1.218,0.517,0.940,0.871,��,2.6,�L
2017/08/30,12:40,0.945,1.474,0.968,1.774,1.215,0.516,0.936,0.868,�k�k��,4.5,�L
2017/08/30,12:50,0.945,1.476,0.967,1.767,1.215,0.516,0.937,0.869,�k�k��,3.8,�L
2017/08/30,13:00,0.943,1.476,0.968,1.771,1.213,0.516,0.937,0.870,�k�k��,3.0,�L
2017/08/30,13:10,0.943,1.468,0.967,1.765,1.212,0.514,0.935,0.866,�k�k��,0.8,�L
2017/08/30,13:20,0.934,1.458,0.961,1.759,1.201,0.512,0.930,0.860,-,CALM,�L
2017/08/30,13:30,0.930,1.450,0.957,1.747,1.197,0.512,0.932,0.858,�k�k��,5.2,�L
2017/08/30,13:40,0.932,1.453,0.961,1.748,1.200,0.512,0.930,0.861,�k�k��,4.6,�L
2017/08/30,13:50,0.930,1.453,0.959,1.746,1.203,0.512,0.932,0.862,�k�k��,4.2,�L
2017/08/30,14:00,0.931,1.455,0.961,1.751,1.201,0.511,0.931,0.862,�k�k��,4.9,�L
2017/08/30,14:10,0.928,1.455,0.956,1.747,1.203,0.510,0.931,0.861,�k�k��,4.8,�L
2017/08/30,14:20,0.929,1.455,0.958,1.745,1.198,0.511,0.931,0.860,�k��,5.0,�L
2017/08/30,14:30,0.926,1.453,0.957,1.744,1.198,0.511,0.929,0.861,�k�k��,4.2,�L
2017/08/30,14:40,0.929,1.457,0.956,1.747,1.199,0.510,0.929,0.860,�k�k��,4.2,�L
2017/08/30,14:50,0.931,1.452,0.956,1.744,1.199,0.508,0.929,0.861,�k�k��,5.0,�L
2017/08/30,15:00,0.930,1.451,0.955,1.751,1.200,0.508,0.931,0.860,�k�k��,4.6,�L
2017/08/30,15:10,0.926,1.454,0.956,1.747,1.201,0.508,0.929,0.861,�k�k��,4.1,��
2017/08/30,15:20,0.927,1.455,0.956,1.745,1.199,0.509,0.930,0.859,�k�k��,3.9,��
2017/08/30,15:30,0.929,1.454,0.958,1.748,1.201,0.508,0.931,0.860,�k,5.1,��
2017/08/30,15:40,0.927,1.453,0.956,1.748,1.200,0.506,0.930,0.861,�k,3.9,��
2017/08/30,15:50,0.926,1.454,0.955,1.746,1.200,0.507,0.930,0.859,�k,3.2,��
2017/08/30,16:00,0.927,1.453,0.954,1.750,1.201,0.506,0.929,0.859,�k,3.5,��
2017/08/30,16:10,0.928,1.455,0.956,1.749,1.199,0.507,0.930,0.861,�k,3.9,��
2017/08/30,16:20,0.928,1.457,0.956,1.748,1.201,0.505,0.931,0.860,�k,4.2,��
2017/08/30,16:30,0.926,1.457,0.955,1.749,1.201,0.506,0.930,0.859,�k,4.4,�L
2017/08/30,16:40,0.925,1.456,0.957,1.748,1.200,0.507,0.930,0.860,�k,5.2,�L
2017/08/30,16:50,0.923,1.456,0.956,1.748,1.200,0.507,0.929,0.862,�k,4.6,�L
2017/08/30,17:00,0.925,1.457,0.954,1.749,1.199,0.506,0.930,0.861,�k�k��,4.5,�L
2017/08/30,17:10,0.928,1.459,0.955,1.752,1.203,0.507,0.929,0.859,�k,3.9,��
2017/08/30,17:20,0.926,1.460,0.955,1.751,1.201,0.506,0.929,0.860,�k�k��,3.2,�L
2017/08/30,17:30,0.925,1.458,0.955,1.748,1.201,0.507,0.932,0.861,�k�k��,4.0,�L
2017/08/30,17:40,0.927,1.457,0.958,1.750,1.201,0.509,0.929,0.861,�k�k��,4.0,�L
2017/08/30,17:50,0.927,1.461,0.956,1.750,1.201,0.508,0.929,0.860,�k�k��,5.3,�L
2017/08/30,18:00,0.928,1.458,0.956,1.749,1.202,0.507,0.928,0.860,�k,4.3,�L
2017/08/30,18:10,0.926,1.459,0.956,1.746,1.202,0.508,0.928,0.861,�k,5.0,�L
2017/08/30,18:20,0.927,1.461,0.957,1.748,1.204,0.510,0.930,0.860,�k,4.6,�L
2017/08/30,18:30,0.925,1.458,0.956,1.748,1.203,0.507,0.928,0.861,�k,4.1,�L
2017/08/30,18:40,0.926,1.456,0.956,1.750,1.202,0.505,0.929,0.864,�k,4.4,�L
2017/08/30,18:50,0.923,1.458,0.959,1.752,1.203,0.509,0.928,0.861,�k,3.3,��
2017/08/30,19:00,0.926,1.460,0.958,1.750,1.202,0.508,0.928,0.863,�k,2.6,��
2017/08/30,19:10,0.925,1.460,0.957,1.748,1.204,0.508,0.930,0.863,�k,3.2,��
2017/08/30,19:20,0.927,1.460,0.954,1.750,1.205,0.508,0.930,0.863,�k�k��,3.3,��
2017/08/30,19:30,0.927,1.461,0.957,1.749,1.203,0.507,0.928,0.863,�k�k��,3.4,��
2017/08/30,19:40,0.926,1.461,0.955,1.749,1.203,0.508,0.929,0.863,�k�k��,3.2,��
2017/08/30,19:50,0.928,1.460,0.956,1.749,1.207,0.506,0.931,0.862,�k�k��,3.0,��
2017/08/30,20:00,0.927,1.462,0.956,1.751,1.204,0.508,0.930,0.862,�k�k��,3.3,�L
2017/08/30,20:10,0.925,1.459,0.958,1.750,1.202,0.507,0.928,0.863,�k�k��,2.0,�L
2017/08/30,20:20,0.927,1.461,0.956,1.749,1.203,0.508,0.929,0.861,�k�k��,2.0,�L
2017/08/30,20:30,0.926,1.460,0.955,1.747,1.202,0.506,0.928,0.861,�k�k��,1.5,�L
2017/08/30,20:40,0.921,1.451,0.954,1.743,1.194,0.508,0.926,0.860,�k��,2.6,�L
2017/08/30,20:50,0.921,1.447,0.950,1.738,1.193,0.506,0.925,0.859,�k�k��,3.3,�L
2017/08/30,21:00,0.916,1.446,0.951,1.738,1.193,0.507,0.925,0.858,�k�k��,3.0,�L
2017/08/30,21:10,0.917,1.447,0.952,1.740,1.194,0.505,0.925,0.859,�k�k��,2.5,��
2017/08/30,21:20,0.917,1.447,0.952,1.737,1.194,0.506,0.926,0.859,�k�k��,2.5,��
2017/08/30,21:30,0.918,1.448,0.949,1.738,1.196,0.505,0.924,0.858,�k�k��,2.9,��
2017/08/30,21:40,0.919,1.449,0.951,1.739,1.198,0.506,0.926,0.857,�k��,2.0,�L
2017/08/30,21:50,0.919,1.450,0.951,1.738,1.196,0.507,0.926,0.859,�k�k��,2.2,�L
2017/08/30,22:00,0.920,1.449,0.952,1.740,1.198,0.506,0.925,0.858,�k,2.3,�L
2017/08/30,22:10,0.923,1.447,0.950,1.737,1.195,0.505,0.925,0.861,�k�k��,2.0,�L
2017/08/30,22:20,0.922,1.449,0.951,1.740,1.198,0.508,0.925,0.858,�k�k��,1.7,�L
2017/08/30,22:30,0.923,1.451,0.951,1.739,1.197,0.507,0.926,0.858,�k,1.1,�L
2017/08/30,22:40,0.920,1.447,0.953,1.736,1.196,0.507,0.926,0.859,�k,1.2,�L
2017/08/30,22:50,0.923,1.449,0.951,1.737,1.196,0.506,0.926,0.859,���쓌,0.6,�L
2017/08/30,23:00,0.924,1.448,0.951,1.738,1.193,0.508,0.925,0.860,�k�k��,1.7,�L
2017/08/30,23:10,0.920,1.446,0.951,1.735,1.195,0.507,0.924,0.858,�k,2.3,�L
2017/08/30,23:20,0.919,1.446,0.950,1.737,1.191,0.507,0.924,0.857,�k��,2.6,�L
2017/08/30,23:30,0.918,1.444,0.949,1.733,1.191,0.508,0.925,0.857,�k��,3.2,�L
2017/08/30,23:40,0.918,1.442,0.949,1.732,1.191,0.507,0.925,0.855,�k��,4.5,�L
2017/08/30,23:50,0.917,1.441,0.950,1.732,1.191,0.506,0.926,0.855,�k��,5.2,�L
